[[{"header":{"parameterUnit":"m.s-1","parameterCategory":1,"la1":30.2991,"la2":30.254,"lo1":-89.0895,"lo2":-89.0444,"dy":0.0017,"dx":0.0017,"nx":28,"ny":28,"refTime":"2023-09-08T21:00:00:Z","depth":0,"parameterNumber":2,"parameterNumberName":"U-component_of_WINDS"},"data":[0,0,0,0,0,0,0,0,0,0,0,0,0,0,0,0,0,0,0,0,0,0,0,0,0,0,0,0,0,0,0,0,0,0,0,0,0,0,0,0,0,0,0,0,0,0,0,0,0,0,0,0,0,0,0,0,0,0,-1.1433,-1.1433,0,-1.1458,-1.1459,-1.1459,-1.1468,-1.1468,-1.1468,-1.1468,-1.1495,-1.1495,-1.1496,0,0,0,0,0,0,0,0,0,0,0,0,0,-1.139,-1.1391,-1.1432,-1.1433,-1.1433,-1.1458,-1.1459,-1.1459,-1.1468,-1.1468,-1.1468,-1.1468,-1.1494,-1.1495,-1.1496,0,0,0,0,0,0,0,0,0,0,0,0,0,-1.1411,-1.1391,-1.1432,-1.1441,-1.1442,-1.1458,-1.1459,-1.1459,-1.1468,-1.1468,-1.1468,-1.1468,-1.1494,-1.1495,-1.1496,-1.1507,0,0,-1.15,-1.1501,0,0,0,0,0,0,0,0,-1.141,-1.1413,-1.1439,-1.144,-1.1441,-1.146,-1.1454,-1.1475,-1.1468,-1.1458,-1.1468,-1.1467,-1.1483,-1.1485,-1.1491,-1.1508,-1.151,-1.15,-1.1501,-1.1502,-1.1502,0,0,0,0,0,0,0,-1.1409,-1.1412,-1.1443,-1.1439,-1.1441,-1.1443,-1.1446,-1.1458,-1.1471,-1.1459,-1.146,-1.1462,-1.1484,-1.1489,-1.1491,-1.151,-1.15,-1.1501,-1.1502,-1.1503,-1.1536,-1.1537,0,0,0,0,0,0,-1.1406,-1.1411,-1.1442,-1.1444,-1.1425,-1.1444,-1.1447,-1.1454,-1.1471,-1.1473,-1.1463,-1.1463,-1.1487,-1.149,-1.1492,-1.1505,-1.1502,-1.1503,-1.1503,-1.1536,-1.1536,-1.1537,0,0,0,0,0,0,-1.1405,-1.1409,-1.1441,-1.1427,-1.1432,-1.1444,-1.1452,-1.1455,-1.146,-1.1474,-1.1476,-1.1466,-1.1487,-1.149,-1.1503,-1.1506,-1.1503,-1.1504,-1.1536,-1.1536,-1.1537,-1.1531,0,0,0,0,0,0,-1.1404,-1.1408,-1.1413,-1.1427,-1.1432,-1.1451,-1.1453,-1.1455,-1.1462,-1.1463,-1.1478,-1.148,-1.1487,-1.1501,-1.1504,-1.1508,-1.1505,-1.1536,-1.1536,-1.1536,-1.1531,-1.1531,-1.1531,0,0,0,0,0,-1.1402,-1.1411,-1.1413,-1.1417,-1.1438,-1.1452,-1.1454,-1.1463,-1.1462,-1.1467,-1.1475,-1.1479,-1.1505,-1.1502,-1.1506,-1.151,-1.1536,-1.1536,-1.1536,-1.1531,-1.1531,-1.1531,0,0,0,0,0,0,-1.1396,-1.1413,-1.1415,-1.1429,-1.1439,-1.1453,-1.1459,-1.1463,-1.1473,-1.1473,-1.1483,-1.1487,-1.1498,-1.1505,-1.1502,-1.152,-1.1521,-1.1522,-1.1515,-1.1516,-1.1516,-1.1514,-1.1506,0,0,0,0,0,-1.1397,-1.1406,-1.142,-1.143,-1.1435,-1.1446,-1.1452,-1.1458,-1.1468,-1.1473,-1.1482,-1.1493,-1.1503,-1.151,-1.152,-1.1532,-1.1535,-1.1536,-1.1536,-1.1536,-1.1537,-1.1543,-1.1544,-1.1538,-1.1538,-1.1538,0,0,-1.1397,-1.1407,-1.1413,-1.1429,-1.1438,-1.1447,-1.145,-1.146,-1.1467,-1.1474,-1.1487,-1.1494,-1.1506,-1.1518,-1.1524,-1.1524,-1.1539,-1.1537,-1.1537,-1.1538,-1.1544,-1.1544,-1.1545,-1.1538,-1.1538,-1.1538,0,0,-1.1403,-1.1412,-1.1421,-1.1429,-1.1442,-1.1449,-1.1451,-1.1464,-1.1469,-1.1481,-1.1487,-1.1495,-1.1513,-1.1521,-1.1528,-1.1535,-1.1539,-1.1538,-1.1538,-1.1544,-1.1545,-1.1545,-1.1547,-1.1548,-1.1539,-1.1539,-1.1539,0,-1.1403,-1.1418,-1.1426,-1.1435,-1.1442,-1.1448,-1.1457,-1.1465,-1.148,-1.1484,-1.1484,-1.1506,-1.1515,-1.1528,-1.153,-1.1535,-1.1537,-1.1537,-1.1544,-1.1544,-1.1545,-1.1547,-1.1548,-1.1539,-1.1539,-1.1539,-1.1539,0,-1.1416,-1.1426,-1.1432,-1.1445,-1.1453,-1.1462,-1.1471,-1.1477,-1.1482,-1.1488,-1.15,-1.1511,-1.1523,-1.1526,-1.1531,-1.154,-1.154,-1.1542,-1.1542,-1.1545,-1.1547,-1.1548,-1.1538,-1.1538,-1.1538,-1.1538,0,0,-1.142,-1.1437,-1.1439,-1.1445,-1.1458,-1.1466,-1.1475,-1.1486,-1.1491,-1.1501,-1.1509,-1.1523,-1.1524,-1.1531,-1.1537,-1.1542,-1.1546,-1.1543,-1.1543,-1.1543,-1.1556,-1.1554,-1.1555,-1.1549,-1.1549,-1.1549,-1.1555,0,-1.1427,-1.1444,-1.1451,-1.1464,-1.1473,-1.1478,-1.1486,-1.1495,-1.1501,-1.1509,-1.1516,-1.1526,-1.1527,-1.1532,-1.1537,-1.1544,-1.1549,-1.1544,-1.1556,-1.1556,-1.1552,-1.1556,-1.1555,-1.156,-1.1556,-1.1556,-1.1556,0,-1.1439,-1.1448,-1.1462,-1.1473,-1.1477,-1.1484,-1.1494,-1.1502,-1.1511,-1.1516,-1.1523,-1.1528,-1.1537,-1.1536,-1.1549,-1.1546,-1.1551,-1.1555,-1.1555,-1.1557,-1.1556,-1.1558,-1.1562,-1.1563,-1.1557,-1.1557,-1.1557,0,-1.144,-1.1455,-1.1465,-1.147,-1.1484,-1.1488,-1.1494,-1.1503,-1.1509,-1.1518,-1.1522,-1.1532,-1.1538,-1.1545,-1.1552,-1.1551,-1.1564,-1.1564,-1.1568,-1.1567,-1.157,-1.157,-1.1575,-1.1573,-1.1573,-1.1573,-1.1573,0,-1.1447,-1.1455,-1.1466,-1.1472,-1.1481,-1.1488,-1.1497,-1.1503,-1.1511,-1.1519,-1.1524,-1.1531,-1.154,-1.1548,-1.1554,-1.1563,-1.1565,-1.1569,-1.157,-1.1568,-1.1568,-1.1572,-1.1571,-1.1574,-1.1574,-1.1574,-1.1574,0,-1.145,-1.1457,-1.1469,-1.148,-1.1483,-1.1489,-1.1498,-1.1504,-1.151,-1.1519,-1.1522,-1.1531,-1.1541,-1.1548,-1.1561,-1.1565,-1.1574,-1.1576,-1.1571,-1.1571,-1.1574,-1.1573,-1.1582,-1.1583,-1.1581,-1.1581,-1.1581,0,-1.1454,-1.146,-1.1472,-1.1477,-1.1483,-1.1491,-1.1496,-1.1504,-1.151,-1.152,-1.1525,-1.1534,-1.1542,-1.1557,-1.1565,-1.1574,-1.1576,-1.1578,-1.1577,-1.1575,-1.1575,-1.1575,-1.1575,-1.1578,-1.1578,-1.1578,-1.1578,0,-1.1461,-1.1464,-1.1472,-1.1481,-1.1487,-1.1495,-1.1503,-1.1507,-1.1515,-1.1521,-1.153,-1.1537,-1.1548,-1.1558,-1.1567,-1.1573,-1.1577,-1.1578,-1.1579,-1.1577,-1.1574,-1.1575,-1.157,-1.1578,-1.1578,-1.1578,-1.1578,-1.1578,-1.1464,-1.147,-1.1478,-1.1487,-1.1493,-1.15,-1.1506,-1.1512,-1.152,-1.153,-1.1534,-1.1543,-1.1551,-1.1565,-1.157,-1.1578,-1.1578,-1.158,-1.1581,-1.1581,-1.158,-1.1573,-1.1579,-1.158,-1.158,-1.158,-1.158,0,-1.1471,-1.1476,-1.1484,-1.1494,-1.1501,-1.1503,-1.1511,-1.1516,-1.1524,-1.1532,-1.1539,-1.1549,-1.1558,-1.1566,-1.1575,-1.1579,-1.1581,-1.1581,-1.1581,-1.1582,-1.1579,-1.1577,-1.158,-1.158,-1.158,-1.158,-1.158,-1.158,-1.1475,-1.1484,-1.1488,-1.1499,-1.1505,-1.1514,-1.1518,-1.1524,-1.153,-1.1541,-1.1548,-1.1553,-1.1561,-1.157,-1.1578,-1.158,-1.1583,-1.1583,-1.1585,-1.1583,-1.1583,-1.1582,-1.1581,-1.1583,-1.1583,-1.1587,-1.1588,-1.1588]},{"header":{"parameterUnit":"m.s-1","parameterCategory":1,"la1":30.2991,"la2":30.254,"lo1":-89.0895,"lo2":-89.0444,"dy":0.0017,"dx":0.0017,"nx":28,"ny":28,"refTime":"2023-09-08T21:00:00:Z","depth":0,"parameterNumber":3,"parameterNumberName":"V-component_of_WINDS"},"data":[0,0,0,0,0,0,0,0,0,0,0,0,0,0,0,0,0,0,0,0,0,0,0,0,0,0,0,0,0,0,0,0,0,0,0,0,0,0,0,0,0,0,0,0,0,0,0,0,0,0,0,0,0,0,0,0,0,0,-2.1413,-2.1415,0,-2.1526,-2.1527,-2.1528,-2.1569,-2.1568,-2.1568,-2.1568,-2.1681,-2.1685,-2.1688,0,0,0,0,0,0,0,0,0,0,0,0,0,-2.1233,-2.1236,-2.1413,-2.1415,-2.1416,-2.1525,-2.1527,-2.1529,-2.1569,-2.1568,-2.1568,-2.1568,-2.168,-2.1684,-2.1688,0,0,0,0,0,0,0,0,0,0,0,0,0,-2.1325,-2.1237,-2.1413,-2.145,-2.1454,-2.1525,-2.1527,-2.1529,-2.1569,-2.1568,-2.1568,-2.1567,-2.1679,-2.1684,-2.1689,-2.1732,0,0,-2.1704,-2.1707,0,0,0,0,0,0,0,0,-2.132,-2.1331,-2.1443,-2.1447,-2.1452,-2.1533,-2.1505,-2.1597,-2.1569,-2.1525,-2.1568,-2.1567,-2.1632,-2.1641,-2.1664,-2.1737,-2.1742,-2.1705,-2.1708,-2.171,-2.1712,0,0,0,0,0,0,0,-2.1313,-2.1327,-2.1458,-2.1444,-2.145,-2.146,-2.1472,-2.1523,-2.1581,-2.1529,-2.1532,-2.1545,-2.1635,-2.1658,-2.1666,-2.1744,-2.1705,-2.1709,-2.1712,-2.1714,-2.1859,-2.186,0,0,0,0,0,0,-2.1301,-2.1321,-2.1454,-2.1461,-2.1383,-2.1464,-2.1478,-2.1507,-2.158,-2.1591,-2.1545,-2.1547,-2.165,-2.166,-2.1671,-2.1726,-2.171,-2.1715,-2.1718,-2.1858,-2.1859,-2.186,0,0,0,0,0,0,-2.1297,-2.1312,-2.145,-2.1392,-2.141,-2.1467,-2.1501,-2.151,-2.1534,-2.1593,-2.1603,-2.1559,-2.165,-2.1663,-2.1717,-2.173,-2.1717,-2.1722,-2.1857,-2.1858,-2.1859,-2.1836,0,0,0,0,0,0,-2.1292,-2.1311,-2.1328,-2.1392,-2.1413,-2.1494,-2.1501,-2.1513,-2.1543,-2.1545,-2.1608,-2.1618,-2.1651,-2.1709,-2.1722,-2.1737,-2.1726,-2.1856,-2.1858,-2.1859,-2.1836,-2.1837,-2.1837,0,0,0,0,0,-2.1285,-2.1316,-2.1328,-2.1344,-2.1436,-2.1494,-2.1507,-2.1544,-2.1543,-2.1561,-2.1599,-2.1616,-2.1727,-2.1714,-2.1729,-2.1746,-2.1855,-2.1857,-2.1859,-2.1836,-2.1837,-2.1837,0,0,0,0,0,0,-2.1251,-2.1325,-2.134,-2.1393,-2.1437,-2.1501,-2.1524,-2.1543,-2.1588,-2.1588,-2.1632,-2.1646,-2.1696,-2.1726,-2.171,-2.1792,-2.1792,-2.1797,-2.177,-2.1771,-2.1771,-2.1763,-2.173,0,0,0,0,0,-2.125,-2.1292,-2.1354,-2.1395,-2.1417,-2.1467,-2.1494,-2.1519,-2.1566,-2.1585,-2.1627,-2.1672,-2.1717,-2.1746,-2.179,-2.1841,-2.1855,-2.186,-2.1861,-2.1861,-2.1864,-2.1894,-2.1897,-2.1866,-2.1866,-2.1866,0,0,-2.1248,-2.1294,-2.1317,-2.139,-2.1427,-2.1469,-2.1482,-2.1526,-2.1558,-2.1591,-2.1644,-2.1677,-2.173,-2.1782,-2.1807,-2.1809,-2.1876,-2.1863,-2.1863,-2.1866,-2.1896,-2.1899,-2.1901,-2.1867,-2.1867,-2.1867,0,0,-2.1265,-2.1304,-2.1343,-2.138,-2.1437,-2.147,-2.1479,-2.1541,-2.1564,-2.1617,-2.1644,-2.1682,-2.1759,-2.1796,-2.1825,-2.1857,-2.1875,-2.187,-2.1872,-2.1901,-2.1903,-2.1905,-2.1917,-2.1921,-2.1874,-2.1874,-2.1874,0,-2.1255,-2.132,-2.136,-2.1403,-2.1434,-2.1467,-2.1507,-2.1541,-2.1609,-2.1629,-2.1631,-2.1728,-2.1766,-2.1828,-2.1836,-2.1858,-2.187,-2.1863,-2.19,-2.1902,-2.1905,-2.1917,-2.1921,-2.1873,-2.1873,-2.1873,-2.1873,0,-2.1305,-2.1349,-2.1374,-2.1439,-2.1473,-2.1514,-2.156,-2.1589,-2.1612,-2.1645,-2.1699,-2.1746,-2.1801,-2.1818,-2.184,-2.1883,-2.1882,-2.1891,-2.1892,-2.1907,-2.1918,-2.1923,-2.1872,-2.1872,-2.1872,-2.1872,0,0,-2.1303,-2.1391,-2.1399,-2.143,-2.1495,-2.153,-2.1572,-2.1627,-2.1651,-2.1697,-2.1734,-2.1798,-2.1807,-2.184,-2.1867,-2.1891,-2.1914,-2.1897,-2.1899,-2.1898,-2.1964,-2.1957,-2.1961,-2.1926,-2.1927,-2.1928,-2.196,0,-2.1329,-2.1407,-2.1444,-2.1505,-2.1547,-2.158,-2.1617,-2.166,-2.1693,-2.1733,-2.1768,-2.1813,-2.1821,-2.1841,-2.1867,-2.1906,-2.1928,-2.1904,-2.1961,-2.1962,-2.1946,-2.1967,-2.196,-2.1987,-2.1965,-2.1965,-2.1966,0,-2.1369,-2.1416,-2.1481,-2.1542,-2.1561,-2.1593,-2.1646,-2.1684,-2.1735,-2.1757,-2.1794,-2.182,-2.1865,-2.1864,-2.1928,-2.1911,-2.1937,-2.1959,-2.1961,-2.1967,-2.1964,-2.1974,-2.1997,-2.2001,-2.1973,-2.1973,-2.1972,0,-2.1361,-2.144,-2.149,-2.1515,-2.1587,-2.1609,-2.164,-2.169,-2.1721,-2.1767,-2.1788,-2.1838,-2.1866,-2.1905,-2.1944,-2.194,-2.2004,-2.2006,-2.2023,-2.2022,-2.2035,-2.2034,-2.2062,-2.2052,-2.2052,-2.2052,-2.2052,0,-2.1386,-2.1425,-2.1487,-2.1517,-2.1562,-2.1605,-2.1647,-2.1681,-2.1725,-2.1762,-2.1794,-2.1828,-2.1878,-2.1919,-2.195,-2.1998,-2.201,-2.2029,-2.2036,-2.2026,-2.2023,-2.2043,-2.2042,-2.2053,-2.2053,-2.2053,-2.2052,0,-2.1384,-2.1428,-2.1484,-2.1548,-2.1565,-2.1595,-2.165,-2.168,-2.1714,-2.1761,-2.1775,-2.1828,-2.1877,-2.1921,-2.1986,-2.2007,-2.2056,-2.2066,-2.2039,-2.2043,-2.2058,-2.2055,-2.2099,-2.2107,-2.2092,-2.2092,-2.2092,0,-2.1397,-2.1427,-2.1495,-2.1522,-2.1553,-2.1597,-2.1629,-2.1672,-2.1704,-2.1764,-2.1787,-2.1839,-2.1883,-2.1961,-2.2005,-2.2055,-2.2066,-2.2078,-2.2074,-2.2062,-2.2066,-2.2064,-2.2067,-2.2078,-2.2078,-2.2078,-2.2078,0,-2.1414,-2.1435,-2.1479,-2.1531,-2.1568,-2.1611,-2.1655,-2.1675,-2.1727,-2.1761,-2.1813,-2.1846,-2.1914,-2.1965,-2.202,-2.2052,-2.2073,-2.2079,-2.2085,-2.2074,-2.2058,-2.2067,-2.2039,-2.2077,-2.2077,-2.2077,-2.2077,-2.2077,-2.142,-2.1449,-2.1501,-2.155,-2.1588,-2.1628,-2.166,-2.1698,-2.1742,-2.18,-2.1824,-2.1876,-2.1926,-2.2003,-2.2035,-2.2077,-2.208,-2.209,-2.2092,-2.2094,-2.2092,-2.2051,-2.2087,-2.2087,-2.2087,-2.2087,-2.2087,0,-2.1439,-2.1475,-2.1519,-2.158,-2.1618,-2.1636,-2.1685,-2.1716,-2.1762,-2.1807,-2.185,-2.1909,-2.1959,-2.2008,-2.206,-2.2084,-2.2095,-2.2096,-2.2095,-2.2102,-2.2086,-2.2075,-2.2087,-2.2087,-2.2087,-2.2087,-2.2087,-2.2087,-2.1454,-2.1503,-2.153,-2.1599,-2.1634,-2.1686,-2.1712,-2.175,-2.1787,-2.1851,-2.1893,-2.1925,-2.1972,-2.2028,-2.2075,-2.2088,-2.2106,-2.2104,-2.212,-2.2104,-2.2103,-2.2103,-2.2092,-2.2108,-2.2108,-2.2133,-2.2133,-2.2133]}]]